| time (UTC) | temp F | wind direction | speed knots | gust knots | rain 1hr in | rain 24hr in | rain mn in | humidity % | barometer mb |
| 20260505050829 | 37 | 243 | 0.0 | 0.9 | 0.00 | 0.00 | 0.00 | 78 | 1003.2 |
| 20260505050328 | 37 | 228 | 1.7 | 3.5 | 0.00 | 0.00 | 0.00 | 77 | 1003.3 |
| 20260505041758 | 37 | 200 | 0.0 | 0.9 | 0.00 | 0.03 | 0.03 | 82 | 1003.1 |
| 20260505041255 | 37 | 205 | 0.0 | 0.0 | 0.00 | 0.03 | 0.03 | 82 | 1003.1 |
| 20260505040752 | 37 | 271 | 0.9 | 1.7 | 0.00 | 0.03 | 0.03 | 83 | 1003.0 |
| 20260505040250 | 37 | 271 | 1.7 | 2.6 | 0.00 | 0.03 | 0.03 | 83 | 1003.1 |
| 20260505035746 | 36 | 250 | 3.5 | 3.5 | 0.00 | 0.03 | 0.03 | 83 | 1003.1 |
| 20260505035242 | 36 | 264 | 0.9 | 1.7 | 0.00 | 0.03 | 0.03 | 83 | 1003.0 |
| 20260505034739 | 36 | 239 | 0.0 | 0.9 | 0.00 | 0.03 | 0.03 | 84 | 1002.9 |
| 20260505034236 | 36 | 274 | 2.6 | 2.6 | 0.00 | 0.03 | 0.03 | 84 | 1002.9 |
| 20260505033733 | 36 | 259 | 1.7 | 1.7 | 0.00 | 0.03 | 0.03 | 84 | 1003.1 |
| 20260505033231 | 36 | 209 | 0.9 | 0.9 | 0.00 | 0.03 | 0.03 | 84 | 1003.2 |
| 20260505032728 | 36 | 293 | 0.9 | 1.7 | 0.00 | 0.03 | 0.03 | 84 | 1003.1 |
| 20260505032224 | 36 | 235 | 0.9 | 1.7 | 0.00 | 0.03 | 0.03 | 84 | 1003.0 |
| 20260505031722 | 37 | 237 | 3.5 | 5.2 | 0.00 | 0.03 | 0.03 | 83 | 1003.0 |
| 20260505031218 | 37 | 292 | 1.7 | 1.7 | 0.00 | 0.03 | 0.03 | 82 | 1003.0 |
| 20260505030715 | 37 | 237 | 0.9 | 1.7 | 0.00 | 0.03 | 0.03 | 81 | 1003.0 |
| 20260505030211 | 38 | 279 | 0.9 | 1.7 | 0.00 | 0.03 | 0.03 | 81 | 1003.0 |
| 20260505025707 | 38 | 230 | 0.9 | 1.7 | 0.00 | 0.03 | 0.03 | 81 | 1002.8 |
| 20260505025206 | 38 | 188 | 3.5 | 5.2 | 0.00 | 0.03 | 0.03 | 79 | 1002.7 |
| 20260505024703 | 38 | 307 | 1.7 | 2.6 | 0.00 | 0.03 | 0.03 | 80 | 1002.7 |
| 20260505024200 | 38 | 296 | 1.7 | 7.0 | 0.00 | 0.03 | 0.03 | 80 | 1002.6 |
| 20260505023657 | 38 | 259 | 5.2 | 6.1 | 0.00 | 0.03 | 0.03 | 79 | 1002.5 |
| 20260505023154 | 39 | 290 | 2.6 | 5.2 | 0.00 | 0.03 | 0.03 | 77 | 1002.6 |
| 20260505022652 | 39 | 212 | 0.9 | 0.9 | 0.00 | 0.03 | 0.03 | 76 | 1002.7 |
| 20260505022149 | 39 | 249 | 1.7 | 2.6 | 0.00 | 0.03 | 0.03 | 76 | 1002.5 |
| 20260505021645 | 39 | 159 | 0.0 | 0.0 | 0.00 | 0.03 | 0.03 | 75 | 1002.3 |
| 20260505021142 | 39 | 212 | 0.9 | 0.9 | 0.00 | 0.03 | 0.03 | 73 | 1002.3 |
| 20260505020638 | 39 | 237 | 1.7 | 2.6 | 0.00 | 0.03 | 0.03 | 73 | 1002.2 |
| 20260505020134 | 40 | 285 | 3.5 | 3.5 | 0.00 | 0.03 | 0.03 | 71 | 1002.1 |
| 20260505015631 | 40 | 211 | 0.0 | 0.9 | 0.00 | 0.03 | 0.03 | 71 | 1002.0 |
| 20260505015128 | 40 | 245 | 0.9 | 0.9 | 0.00 | 0.03 | 0.03 | 70 | 1002.0 |
| 20260505014624 | 40 | 288 | 2.6 | 3.5 | 0.00 | 0.03 | 0.03 | 69 | 1001.9 |
| 20260505014122 | 40 | 228 | 0.9 | 0.9 | 0.00 | 0.03 | 0.03 | 69 | 1001.8 |
| 20260505013619 | 41 | 233 | 0.9 | 1.7 | 0.00 | 0.03 | 0.03 | 68 | 1001.7 |
| 20260505013116 | 41 | 224 | 4.3 | 7.8 | 0.00 | 0.03 | 0.03 | 67 | 1001.7 |
| 20260505012615 | 41 | 267 | 2.6 | 5.2 | 0.00 | 0.03 | 0.03 | 63 | 1001.8 |
| 20260505012111 | 41 | 222 | 1.7 | 3.5 | 0.00 | 0.03 | 0.03 | 64 | 1001.5 |
| 20260505011607 | 41 | 247 | 4.3 | 6.1 | 0.00 | 0.03 | 0.03 | 62 | 1001.7 |
| 20260505011104 | 41 | 245 | 1.7 | 2.6 | 0.00 | 0.03 | 0.03 | 62 | 1001.7 |
| 20260505010559 | 42 | 225 | 3.5 | 3.5 | 0.00 | 0.03 | 0.03 | 61 | 1001.5 |
| 20260505010056 | 42 | 201 | 2.6 | 3.5 | 0.00 | 0.03 | 0.03 | 60 | 1001.5 |
| 20260505005552 | 42 | 287 | 2.6 | 3.5 | 0.00 | 0.03 | 0.03 | 55 | 1001.3 |
| 20260505005050 | 42 | 198 | 2.6 | 2.6 | 0.00 | 0.03 | 0.03 | 57 | 1001.3 |
| 20260505004546 | 42 | 284 | 1.7 | 3.5 | 0.00 | 0.03 | 0.03 | 57 | 1001.2 |
| 20260505004043 | 42 | 221 | 2.6 | 3.5 | 0.00 | 0.03 | 0.03 | 57 | 1001.2 |
| 20260505003541 | 42 | 252 | 5.2 | 7.8 | 0.00 | 0.03 | 0.03 | 57 | 1000.9 |
| 20260505003038 | 42 | 237 | 2.6 | 3.5 | 0.00 | 0.03 | 0.03 | 56 | 1001.3 |
| 20260505002537 | 42 | 259 | 6.1 | 7.8 | 0.00 | 0.03 | 0.03 | 56 | 1001.2 |
| 20260505002032 | 43 | 228 | 3.5 | 5.2 | 0.00 | 0.03 | 0.03 | 56 | 1001.0 |
| 20260505001529 | 43 | 227 | 3.5 | 6.1 | 0.00 | 0.03 | 0.03 | 56 | 1000.9 |
| 20260505001026 | 43 | 232 | 3.5 | 5.2 | 0.00 | 0.03 | 0.03 | 56 | 1000.9 |
| 20260505000523 | 43 | 215 | 2.6 | 3.5 | 0.00 | 0.03 | 0.03 | 58 | 1000.9 |
| 20260505000021 | 43 | 278 | 3.5 | 3.5 | 0.00 | 0.03 | 0.03 | 56 | 1000.9 |
| 20260504235517 | 42 | 233 | 4.3 | 6.1 | 0.00 | 0.03 | 0.03 | 57 | 1001.0 |
| 20260504235013 | 43 | 300 | 4.3 | 6.1 | 0.00 | 0.03 | 0.03 | 57 | 1000.8 |
| 20260504234511 | 43 | 267 | 3.5 | 3.5 | 0.00 | 0.03 | 0.03 | 59 | 1000.7 |
| 20260504234008 | 43 | 248 | 2.6 | 3.5 | 0.00 | 0.03 | 0.03 | 60 | 1000.8 |
| 20260504233503 | 43 | 270 | 4.3 | 6.1 | 0.00 | 0.03 | 0.03 | 61 | 1000.6 |
| 20260504233000 | 42 | 189 | 3.5 | 6.1 | 0.00 | 0.03 | 0.03 | 59 | 1000.7 |
| 20260504232457 | 42 | 228 | 1.7 | 2.6 | 0.00 | 0.03 | 0.03 | 60 | 1000.8 |
| 20260504231955 | 42 | 205 | 1.7 | 2.6 | 0.00 | 0.03 | 0.03 | 60 | 1000.7 |
| 20260504231451 | 42 | 221 | 0.9 | 1.7 | 0.00 | 0.03 | 0.03 | 61 | 1000.6 |
| 20260504230947 | 42 | 223 | 2.6 | 3.5 | 0.00 | 0.03 | 0.03 | 63 | 1000.7 |
| 20260504230444 | 42 | 245 | 4.3 | 5.2 | 0.00 | 0.03 | 0.03 | 63 | 1000.5 |
| 20260504225943 | 42 | 248 | 3.5 | 5.2 | 0.00 | 0.03 | 0.03 | 63 | 1000.5 |
| 20260504225439 | 42 | 225 | 4.3 | 5.2 | 0.00 | 0.03 | 0.03 | 63 | 1000.5 |
| 20260504224936 | 42 | 260 | 2.6 | 3.5 | 0.00 | 0.03 | 0.03 | 64 | 1000.6 |
| 20260504224433 | 42 | 217 | 4.3 | 9.6 | 0.00 | 0.03 | 0.03 | 63 | 1000.4 |
| 20260504223930 | 43 | 240 | 3.5 | 6.1 | 0.00 | 0.03 | 0.03 | 63 | 1000.4 |
| 20260504223426 | 42 | 227 | 4.3 | 6.1 | 0.00 | 0.03 | 0.03 | 65 | 1000.4 |
| 20260504222921 | 43 | 213 | 2.6 | 3.5 | 0.00 | 0.03 | 0.03 | 67 | 1000.4 |
| 20260504222419 | 43 | 259 | 4.3 | 7.8 | 0.00 | 0.03 | 0.03 | 68 | 1000.2 |
| 20260504221917 | 43 | 178 | 0.9 | 0.9 | 0.00 | 0.03 | 0.03 | 68 | 1000.1 |
| 20260504221414 | 43 | 275 | 5.2 | 7.8 | 0.00 | 0.03 | 0.03 | 67 | 1000.2 |
| 20260504220911 | 43 | 207 | 6.1 | 7.8 | 0.00 | 0.03 | 0.03 | 67 | 1000.1 |
| 20260504220407 | 42 | 213 | 12.2 | 16.5 | 0.00 | 0.03 | 0.03 | 68 | 1000.2 |
| 20260504215905 | 43 | 249 | 6.1 | 8.7 | 0.00 | 0.03 | 0.03 | 68 | 999.9 |
| 20260504215401 | 43 | 228 | 3.5 | 5.2 | 0.00 | 0.03 | 0.03 | 69 | 999.8 |
| 20260504214857 | 43 | 221 | 3.5 | 5.2 | 0.00 | 0.03 | 0.03 | 68 | 999.7 |
| 20260504214354 | 43 | 230 | 7.0 | 8.7 | 0.00 | 0.03 | 0.03 | 67 | 999.8 |
| 20260504213851 | 44 | 245 | 7.0 | 8.7 | 0.00 | 0.03 | 0.03 | 67 | 999.6 |
| 20260504213347 | 44 | 239 | 7.0 | 9.6 | 0.00 | 0.03 | 0.03 | 67 | 999.7 |
| 20260504212844 | 43 | 262 | 3.5 | 3.5 | 0.00 | 0.03 | 0.03 | 69 | 999.7 |
| 20260504212340 | 43 | 221 | 6.1 | 9.6 | 0.00 | 0.03 | 0.03 | 70 | 999.7 |
| 20260504211838 | 43 | 247 | 5.2 | 7.8 | 0.00 | 0.03 | 0.03 | 69 | 999.5 |
| 20260504211334 | 44 | 233 | 3.5 | 7.8 | 0.00 | 0.03 | 0.03 | 68 | 999.6 |
| 20260504210832 | 44 | 212 | 4.3 | 7.0 | 0.00 | 0.03 | 0.03 | 67 | 999.5 |
| 20260504210328 | 44 | 276 | 3.5 | 3.5 | 0.00 | 0.03 | 0.03 | 68 | 999.5 |
| 20260504205826 | 44 | 210 | 3.5 | 3.5 | 0.00 | 0.03 | 0.03 | 68 | 999.5 |
| 20260504205323 | 44 | 198 | 11.3 | 16.5 | 0.00 | 0.03 | 0.03 | 68 | 999.3 |
| 20260504204821 | 44 | 254 | 3.5 | 3.5 | 0.00 | 0.03 | 0.03 | 68 | 999.5 |
| 20260504204319 | 44 | 266 | 4.3 | 6.1 | 0.00 | 0.03 | 0.03 | 68 | 999.3 |
| 20260504203819 | 44 | 262 | 1.7 | 2.6 | 0.00 | 0.03 | 0.03 | 69 | 999.3 |
| 20260504203315 | 44 | 213 | 6.1 | 8.7 | 0.00 | 0.03 | 0.03 | 67 | 999.0 |
| 20260504202810 | 44 | 248 | 4.3 | 6.1 | 0.00 | 0.03 | 0.03 | 68 | 999.2 |
| 20260504202308 | 44 | 225 | 5.2 | 8.7 | 0.00 | 0.03 | 0.03 | 69 | 999.0 |
| 20260504201804 | 44 | 248 | 5.2 | 7.8 | 0.00 | 0.03 | 0.03 | 68 | 999.3 |
| 20260504201302 | 43 | 178 | 3.5 | 5.2 | 0.00 | 0.03 | 0.03 | 69 | 999.1 |
| 20260504200800 | 44 | 262 | 4.3 | 7.0 | 0.00 | 0.03 | 0.03 | 70 | 999.2 |
| 20260504200256 | 44 | 213 | 3.5 | 7.0 | 0.00 | 0.03 | 0.03 | 70 | 998.9 |
| 20260504195752 | 43 | 217 | 8.7 | 9.6 | 0.00 | 0.03 | 0.03 | 71 | 999.0 |
| 20260504195248 | 44 | 218 | 7.8 | 11.3 | 0.00 | 0.03 | 0.03 | 70 | 998.7 |
| 20260504194745 | 44 | 245 | 8.7 | 11.3 | 0.00 | 0.03 | 0.03 | 69 | 998.8 |
| 20260504194241 | 44 | 236 | 3.5 | 3.5 | 0.00 | 0.03 | 0.03 | 69 | 998.8 |
| 20260504193737 | 43 | 216 | 2.6 | 3.5 | 0.00 | 0.03 | 0.03 | 71 | 998.4 |
| 20260504193235 | 44 | 232 | 5.2 | 7.0 | 0.00 | 0.03 | 0.03 | 70 | 998.4 |
| 20260504192733 | 45 | 222 | 3.5 | 7.0 | 0.00 | 0.03 | 0.03 | 68 | 998.4 |
| 20260504192231 | 44 | 244 | 5.2 | 7.0 | 0.00 | 0.03 | 0.03 | 70 | 998.4 |
| 20260504191730 | 44 | 241 | 3.5 | 3.5 | 0.00 | 0.03 | 0.03 | 72 | 998.4 |
| 20260504191226 | 44 | 210 | 5.2 | 7.8 | 0.00 | 0.03 | 0.03 | 71 | 998.4 |
| 20260504190721 | 44 | 236 | 5.2 | 7.8 | 0.00 | 0.03 | 0.03 | 72 | 998.1 |
| 20260504190218 | 44 | 247 | 4.3 | 7.0 | 0.00 | 0.03 | 0.03 | 71 | 998.1 |
| 20260504185715 | 44 | 265 | 3.5 | 5.2 | 0.00 | 0.03 | 0.03 | 69 | 998.0 |
| 20260504185212 | 47 | 248 | 7.0 | 13.0 | 0.00 | 0.03 | 0.03 | 67 | 998.0 |
| 20260504184708 | 44 | 241 | 4.3 | 6.1 | 0.00 | 0.03 | 0.03 | 71 | 997.8 |
| 20260504184203 | 44 | 240 | 8.7 | 11.3 | 0.00 | 0.03 | 0.03 | 71 | 997.7 |
| 20260504183700 | 45 | 198 | 3.5 | 5.2 | 0.00 | 0.03 | 0.03 | 73 | 997.7 |
| 20260504183157 | 45 | 231 | 3.5 | 3.5 | 0.00 | 0.03 | 0.03 | 72 | 997.5 |
| 20260504182654 | 44 | 204 | 3.5 | 5.2 | 0.00 | 0.03 | 0.03 | 75 | 997.4 |
| 20260504182152 | 44 | 247 | 7.0 | 8.7 | 0.00 | 0.03 | 0.03 | 70 | 997.4 |
| 20260504181649 | 45 | 222 | 4.3 | 6.1 | 0.00 | 0.03 | 0.03 | 72 | 997.3 |
| 20260504181147 | 46 | 246 | 7.8 | 13.9 | 0.00 | 0.03 | 0.03 | 75 | 997.2 |
| 20260504180646 | 43 | 226 | 3.5 | 6.1 | 0.00 | 0.03 | 0.03 | 82 | 997.1 |
| 20260504180144 | 44 | 235 | 8.7 | 12.2 | 0.00 | 0.03 | 0.03 | 81 | 997.3 |
| 20260504175641 | 45 | 226 | 7.0 | 7.8 | 0.00 | 0.03 | 0.03 | 71 | 997.1 |
| 20260504175137 | 47 | 262 | 4.3 | 8.7 | 0.00 | 0.03 | 0.03 | 68 | 997.1 |
| 20260504174636 | 46 | 248 | 7.8 | 11.3 | 0.00 | 0.03 | 0.03 | 70 | 996.9 |
| 20260504174132 | 45 | 220 | 6.1 | 7.0 | 0.00 | 0.03 | 0.03 | 73 | 996.7 |
| 20260504173629 | 45 | 232 | 9.6 | 14.8 | 0.00 | 0.03 | 0.03 | 76 | 996.6 |
| 20260504173127 | 45 | 222 | 1.7 | 2.6 | 0.00 | 0.03 | 0.03 | 76 | 996.7 |
| 20260504172623 | 44 | 231 | 5.2 | 7.0 | 0.00 | 0.03 | 0.03 | 79 | 996.5 |
| 20260504172120 | 45 | 241 | 4.3 | 5.2 | 0.00 | 0.03 | 0.03 | 79 | 996.6 |
| 20260504171616 | 43 | 234 | 2.6 | 2.6 | 0.00 | 0.03 | 0.03 | 84 | 996.5 |
| 20260504171114 | 43 | 241 | 3.5 | 5.2 | 0.00 | 0.03 | 0.03 | 82 | 996.5 |
| 20260504170609 | 46 | 229 | 6.1 | 13.0 | 0.00 | 0.03 | 0.03 | 71 | 996.3 |
| 20260504170107 | 46 | 251 | 7.8 | 9.6 | 0.00 | 0.03 | 0.03 | 70 | 996.4 |
| 20260504150953 | 44 | 205 | 2.6 | 3.5 | 0.00 | 0.03 | 0.03 | 80 | 994.8 |
| 20260504150450 | 44 | 210 | 3.5 | 5.2 | 0.00 | 0.03 | 0.03 | 81 | 994.7 |
| 20260504140916 | 47 | 204 | 3.5 | 5.2 | 0.00 | 0.03 | 0.03 | 83 | 993.2 |
| 20260504140412 | 47 | 217 | 5.2 | 7.8 | 0.00 | 0.03 | 0.03 | 78 | 993.1 |
| 20260504130337 | 46 | 238 | 4.3 | 5.2 | 0.00 | 0.03 | 0.03 | 89 | 992.5 |
| 20260504120300 | 45 | 188 | 5.2 | 6.1 | 0.00 | 0.03 | 0.03 | 93 | 991.8 |
| 20260504110224 | 47 | 308 | 3.5 | 6.1 | 0.00 | 0.00 | 0.00 | 87 | 991.9 |
| 20260504100148 | 51 | 119 | 0.9 | 1.7 | 0.00 | 0.00 | 0.00 | 69 | 991.8 |
| 20260504090110 | 59 | 185 | 5.2 | 6.1 | 0.00 | 0.00 | 0.00 | 40 | 989.8 |
| 20260504081541 | 58 | 226 | 7.0 | 8.7 | 0.00 | 0.00 | 0.00 | 41 | 990.5 |
| 20260504081037 | 58 | 143 | 1.7 | 5.2 | 0.00 | 0.00 | 0.00 | 41 | 990.6 |
| 20260504080533 | 58 | 177 | 6.1 | 7.8 | 0.00 | 0.00 | 0.00 | 41 | 990.7 |